Regional Weather Roundup
Issued by NWS

Home | Current Version | Previous Version | Text Only | Print | Product List | Glossary Off
Versions: 1 2 3 4 5 6 7 8 9 10 11 12 13 14 15 16 17 18 19 20 21 22 23 24 25 26 27 28 29 30 31 32 33 34 35 36 37 38 39 40 41 42 43 44 45 46 47 48 49 50

988
ASUS43 KMKX 300600
RWRWI

WISCONSIN REGIONAL WEATHER ROUNDUP
NATIONAL WEATHER SERVICE MILWAUKEE/SULLIVAN WI
100 AM CDT TUE MAY 30 2017

NOTE: "FAIR" INDICATES FEW OR NO CLOUDS BELOW 12,000 FEET WITH NO
SIGNIFICANT WEATHER AND/OR OBSTRUCTIONS TO VISIBILITY.

WIZ001-002-006>008-014>016-023>028-300700-
NORTHWEST WISCONSIN

CITY           SKY/WX    TMP DP  RH WIND       PRES   REMARKS
SUPERIOR ARPT  NOT AVBL
ASHLAND        CLOUDY    52  45  77 SW8       29.76S
6HR MIN TEMP:  47; 6HR MAX TEMP:  57;

HAYWARD        CLOUDY    52  46  80 SW7       29.79F
6HR MIN TEMP:  48; 6HR MAX TEMP:  58; 6HR PCP: TRACE;

SIREN          CLOUDY    52  46  78 W7        29.82F
CUMBERLAND     MOCLDY    50  45  81 W8        29.82F
RICE LAKE      MOCLDY    52  46  81 W6        29.84S
6HR MIN TEMP:  52; 6HR MAX TEMP:  57; 6HR PCP:  0.01;

CHETEK         CLOUDY    49  46  90 SW3       29.83F
LADYSMITH      MOCLDY    50  47  88 SW5       29.82F
EAU CLAIRE     NOT AVBL
MENOMONIE      CLOUDY    55  47  77 W7        29.85S
6HR MIN TEMP:  53; 6HR MAX TEMP:  61;

NEW RICHMOND   CLOUDY    52  46  81 W6        29.85F
OSCEOLA        CLOUDY    54  48  82 W9        29.87S
$$

WIZ003>005-009-010-017-018-300700-
NORTH CENTRAL WISCONSIN

CITY           SKY/WX    TMP DP  RH WIND       PRES   REMARKS
MANITOWISH WTR CLOUDY    47  47 100 SW3       29.77S
ARBOR VITAE    CLEAR     51  47  89 W5        29.77S
WOODRUFF       CLEAR     51  47  89 W5        29.77S
RHINELANDER    MOCLDY    51  49  92 W10       29.79S
6HR MIN TEMP:  51; 6HR MAX TEMP:  53; 6HR PCP:  0.13;

EAGLE RIVER    CLOUDY    48  47  94 W7        29.76S
LAND O LAKES   CLOUDY    48  47  93 W3        29.78R
6HR MIN TEMP:  48; 6HR MAX TEMP:  54; 6HR PCP:  0.05;

PHILLIPS       CLOUDY    48  48 100 SW6       29.79F
6HR MIN TEMP:  48; 6HR MAX TEMP:  54; 6HR PCP:  0.07;

TOMAHAWK       PTCLDY    48  47  93 W7        29.80S
MEDFORD        PTCLDY    49  47  92 W3        29.82R
MERRILL        CLOUDY    51  50  95 W8        29.81S
6HR MIN TEMP:  51; 6HR MAX TEMP:  56;

$$

WIZ029-030-035-036-043>047-300700-
CENTRAL WISCONSIN

CITY           SKY/WX    TMP DP  RH WIND       PRES   REMARKS
WAUSAU         CLOUDY    52  50  93 W9        29.80S
6HR MIN TEMP:  52; 6HR MAX TEMP:  53; 6HR PCP:  0.16;

MOSINEE        CLOUDY    50  50 100 W6        29.82F
MARSHFIELD     CLEAR     50  46  86 W8        29.82S
6HR MIN TEMP:  50; 6HR MAX TEMP:  55; 6HR PCP:  0.02;

STEVENS POINT  MOCLDY    50  50 100 W5        29.83S
WAUPACA        CLOUDY    57  50  78 W7        29.82S
WAUTOMA        CLEAR     52  49  89 W6        29.84S
6HR MIN TEMP:  52; 6HR MAX TEMP:  61;

WISC RAPIDS    PTCLDY    51  48  89 SW6       29.84F
6HR MIN TEMP:  51; 6HR MAX TEMP:  62;

CAMP DOUGLAS   CLEAR     48  46  93 W5        29.85F
6HR MIN TEMP:  48; 6HR MAX TEMP:  57;

$$

WIZ011>013-019>022-031-037>040-048>050-300700-
NORTHEAST WISCONSIN

CITY           SKY/WX    TMP DP  RH WIND       PRES   REMARKS
ANTIGO         MOCLDY    49  49  99 W10       29.79F
SHAWANO        CLOUDY    55  50  84 W7        29.80R
6HR MIN TEMP:  54; 6HR MAX TEMP:  62; 6HR PCP:  0.01;

OCONTO         PTCLDY    51  48  92 SW5       29.78S
STURGEON BAY   PTCLDY    53  49  86 SW8       29.78S
6HR MIN TEMP:  53; 6HR MAX TEMP:  63; 6HR PCP:  0.01;

GREEN BAY      CLEAR     55  51  86 W13       29.80S
6HR MIN TEMP:  55; 6HR MAX TEMP:  63; 6HR PCP: TRACE;

MANITOWOC      NOT AVBL
APPLETON       MOCLDY    52  46  82 W8        29.80F
CLINTONVILLE   CLOUDY    54  46  76 W6        29.81S
OSHKOSH        PTCLDY    54  49  83 VRB5      29.81F
6HR MIN TEMP:  53; 6HR MAX TEMP:  61;

$$

WIZ032>034-041-042-053>061-300700-
SOUTHWEST WISCONSIN

CITY           SKY/WX    TMP DP  RH WIND       PRES   REMARKS
LA CROSSE      MOCLDY    56  49  77 W7        29.86F
6HR MIN TEMP:  55; 6HR MAX TEMP:  64; 6HR PCP: TRACE;

SPARTA         CLEAR     44  44  99 CALM      29.87F
VIROQUA        CLEAR     50  48  92 N7        29.89S
6HR MIN TEMP:  50; 6HR MAX TEMP:  62;

BOSCOBEL       CLEAR     52  47  83 SW3       29.89F
6HR MIN TEMP:  52; 6HR MAX TEMP:  68;

PRAIRIE DU CHI CLEAR     56  46  70 W6        29.90S
PLATTEVILLE    CLEAR     54  49  84 W10       29.92R
$$

WIZ056-057-062-063-064-067-068-300700-
SOUTH CENTRAL WISCONSIN

CITY           SKY/WX    TMP DP  RH WIND       PRES   REMARKS
REEDSBURG      CLEAR     54  49  82 W9        29.87S
6HR MIN TEMP:  54; 6HR MAX TEMP:  57;

BARABOO/DELLS  PTCLDY    53  47  81 W7        29.87S
LONE ROCK      NOT AVBL
MINERAL POINT  CLEAR     52  48  87 W6        29.90S
MADISON        CLEAR     54  48  80 CALM      29.86S
6HR MIN TEMP:  52; 6HR MAX TEMP:  65; 6HR PCP:  0.06;

MIDDLETON      CLEAR     52  48  84 W7        29.88S
WATERTOWN      CLEAR     51  51 100 CALM      29.86S
MONROE         CLEAR     55  45  67 W12       29.90R
JANESVILLE     CLEAR     55  45  67 W8        29.88S
$$

WIZ051-052-058>065-066-070>072-300700-
SOUTHEAST WISCONSIN

CITY           SKY/WX    TMP DP  RH WIND       PRES   REMARKS
MILWAUKEE      PTCLDY    56  49  77 SW7       29.87R
6HR MIN TEMP:  55; 6HR MAX TEMP:  62; 6HR PCP:  0.08;

WAUKESHA       CLEAR     50  46  87 SW6       29.87S
MILWAUKEE/TIMM   N/A     52  45  76 SW3       29.86S
RACINE         CLEAR     55  46  71 SW5       29.88S
6HR MIN TEMP:  53; 6HR MAX TEMP:  69; 6HR PCP: TRACE;

KENOSHA        CLEAR     51  46  83 SW5       29.87S
6HR MIN TEMP:  50; 6HR MAX TEMP:  68;

FOND DU LAC    PTCLDY    53  47  79 SW3       29.83S
6HR MIN TEMP:  53; 6HR MAX TEMP:  62;

SHEBOYGAN      CLEAR     51  49  92 W7        29.82S
6HR MIN TEMP:  51; 6HR MAX TEMP:  62; 6HR PCP: TRACE;

WEST BEND      CLEAR     54  48  82 W7        29.84S
JUNEAU         CLEAR     51  47  87 SW3       29.86S
$$

LSZ147-162-300700-
LAKE SUPERIOR

STATION/POSITION TIME  TEMP    WIND        PRES    WAVE
                       AIR SEA DIR/SP/G            HT/PER
                 (UTC) (F)     (DEG/KT/KT) (MB)    (FT/S)
W MID LAKE BUOY  0450   42 37  240/ 14/ 16 1006.3R   2/ 4
DEVILS ISLAND    0500   47     260/ 15/ 16 1007.3S
SAXON HARBOR     0530   53     200/  4/  7 1007.5F
$$

LMZ867-665-643>646-300700-
LAKE MICHIGAN

STATION/POSITION TIME  TEMP    WIND        PRES    WAVE
                       AIR SEA DIR/SP/G            HT/PER
                 (UTC) (F)     (DEG/KT/KT) (MB)    (FT/S)
CHAMBERS ISLAND  0540   53     210/  5/  8 1007.5S
N MID LAKE BUOY  0450   46 41  220/ 10/ 12 1007.9R   2/ 4
NORTHPORT PIER   0540   55     220/  4/ 10 1007.5R
KEWAUNEE LAKESHO 0530   56     260/  7/ 10 1008.5F
SHEBOYGAN LAKESH 0500   57     250/ 10/ 12 1009.6F
PORT WASHINGTON  0530   57     250/  5/  7 1011.5S
ATWATER BUOY     0409   54     250/  6/  6 1011.1F
MILWAUKEE LAKESH 0530   56     210/  9/  9   N/A
S MID LAKE BUOY  0450   51 48  250/  8/  8 1011.8R   1/ 4
KENOSHA   LAKESH 0500   61     260/  3/  5 1011.5
$$

TC  - TEMPERATURE IN CELSIUS
VSB - VISIBILITY IN STATUTE MILES
WCI - WIND CHILL INDEX
HX  - HEAT INDEX





USA.gov is the U.S. government's official web portal to all federal, state and local government web resources and services.